FW1232 Weather Reports


time (UTC)temp
F
wind
direction
speed
knots
gust
knots
rain 1hr
in
rain 24hr
in
rain mn
in
humidity
%
barometer
mb
20260505124556 64 53 0.0 0.0 0.00 0.00 0.00 71 1012.3
20260505123105 63 0 0.0 1.7 0.00 0.00 0.00 70 1012.1
20260505121556 62 50 0.0 1.7 0.00 0.00 0.00 70 1012.1
20260505120100 62 0 0.0 0.0 0.00 0.00 0.00 75 1012.1
20260505114559 61 0 0.0 1.7 0.00 0.00 0.00 73 1011.8
20260505113101 61 0 0.9 2.6 0.00 0.00 0.00 72 1011.7
20260505111600 62 242 0.0 1.7 0.00 0.00 0.00 73 1011.5
20260505110105 62 0 0.9 5.2 0.00 0.00 0.00 71 1011.4
20260505101603 62 0 0.0 4.3 0.00 0.00 0.00 68 1010.9
20260505100059 63 157 0.0 4.3 0.00 0.00 0.00 68 1010.9
20260505094606 63 156 0.9 4.3 0.00 0.00 0.00 67 1011.0
20260505093057 63 156 1.7 5.2 0.00 0.00 0.00 67 1010.9
20260505091600 63 152 3.5 6.1 0.00 0.00 0.00 66 1010.9
20260505090101 63 143 2.6 6.1 0.00 0.00 0.00 66 1011.0
20260505084559 63 155 2.6 7.8 0.00 0.00 0.00 66 1011.0
20260505083100 64 137 3.5 7.0 0.00 0.00 0.00 65 1011.1
20260505081603 64 148 3.5 8.7 0.00 0.00 0.00 65 1011.1
20260505080058 64 140 3.5 7.0 0.00 0.00 0.00 65 1010.8
20260505074610 64 140 2.6 5.2 0.00 0.00 0.00 66 1010.7
20260505073107 64 136 2.6 6.1 0.00 0.00 0.00 65 1010.7
20260505071558 65 140 2.6 4.3 0.00 0.00 0.00 65 1010.8
20260505070057 65 0 1.7 5.2 0.00 0.00 0.00 64 1010.9
20260505064559 66 141 1.7 4.3 0.00 0.00 0.00 63 1010.8
20260505063100 66 142 2.6 4.3 0.00 0.00 0.00 60 1010.9
20260505061625 66 165 1.7 4.3 0.00 0.00 0.00 63 1011.0
20260505060059 67 170 0.9 4.3 0.00 0.00 0.00 62 1011.2
20260505054625 68 0 0.9 6.1 0.00 0.00 0.00 61 1011.1
20260505053059 68 171 1.7 6.1 0.00 0.00 0.00 59 1011.1
20260505051601 69 170 1.7 6.1 0.00 0.00 0.00 61 1010.9
20260505050103 69 181 4.3 7.8 0.00 0.00 0.00 58 1010.9
20260505041558 69 159 4.3 7.0 0.00 0.00 0.00 59 1010.4
20260505034600 69 146 2.6 7.0 0.00 0.00 0.00 58 1010.2
20260505033056 70 140 3.5 9.6 0.00 0.00 0.00 58 1010.1
20260505031601 70 169 2.6 7.8 0.00 0.00 0.00 56 1010.3
20260505024609 71 157 5.2 12.2 0.00 0.00 0.00 55 1009.7
20260505023057 72 162 5.2 10.4 0.00 0.00 0.00 56 1009.8
20260505021612 72 214 4.3 10.4 0.00 0.00 0.00 54 1009.9
20260505020100 72 192 7.0 13.0 0.00 0.00 0.00 53 1009.6
20260505014558 72 167 4.3 11.3 0.00 0.00 0.00 54 1009.7
20260505013057 72 186 4.3 9.6 0.00 0.00 0.00 54 1009.6
20260505011601 73 173 2.6 7.0 0.00 0.00 0.00 54 1009.6
20260505010105 74 131 3.5 10.4 0.00 0.00 0.00 53 1009.6
20260505004601 74 183 5.2 13.9 0.00 0.00 0.00 52 1009.7
20260505003100 75 158 5.2 14.8 0.00 0.00 0.00 51 1009.5
20260505001600 75 196 6.1 15.6 0.00 0.00 0.00 51 1009.5
20260505000058 76 204 6.1 13.9 0.00 0.00 0.00 48 1009.5
20260504234558 76 222 7.8 13.0 0.00 0.00 0.00 48 1009.6
20260504233102 77 210 7.8 12.2 0.00 0.00 0.00 49 1009.7
20260504231557 77 160 7.0 13.9 0.00 0.00 0.00 49 1009.8
20260504230101 77 230 7.8 16.5 0.00 0.00 0.00 48 1009.8
20260504224556 78 190 9.6 20.9 0.00 0.00 0.00 48 1009.8
20260504223103 78 161 7.0 17.4 0.00 0.00 0.00 47 1009.7
20260504221608 78 199 8.7 14.8 0.00 0.00 0.00 47 1009.6
20260504220135 78 182 8.7 17.4 0.00 0.00 0.00 47 1009.6
20260504214558 78 188 6.1 17.4 0.00 0.00 0.00 49 1009.7
20260504213123 78 200 9.6 17.4 0.00 0.00 0.00 48 1009.7
20260504211557 78 198 7.0 18.2 0.00 0.00 0.00 48 1009.8
20260504204611 78 178 6.1 14.8 0.00 0.00 0.00 49 1010.0
20260504203057 78 195 6.1 14.8 0.00 0.00 0.00 48 1010.0
20260504201608 78 220 5.2 11.3 0.00 0.00 0.00 50 1010.2
20260504200109 78 214 7.0 13.0 0.00 0.00 0.00 49 1010.4
20260504194559 77 239 7.8 15.6 0.00 0.00 0.00 51 1010.6
20260504193103 78 220 7.0 14.8 0.00 0.00 0.00 48 1010.9
20260504191606 77 240 7.8 16.5 0.00 0.00 0.00 52 1011.0
20260504190100 77 159 7.8 16.5 0.00 0.00 0.00 52 1011.2
20260504184601 77 232 3.5 16.5 0.00 0.00 0.00 53 1011.4
20260504183104 76 208 5.2 14.8 0.00 0.00 0.00 54 1011.4
20260504181614 75 190 7.0 14.8 0.00 0.00 0.00 54 1011.5
20260504180100 75 182 7.8 13.0 0.00 0.00 0.00 55 1011.7
20260504174556 74 225 8.7 15.6 0.00 0.00 0.00 55 1011.8
20260504173101 74 224 4.3 13.9 0.00 0.00 0.00 56 1012.0
20260504171606 73 189 7.8 14.8 0.00 0.00 0.00 56 1012.1
20260504170104 72 268 4.3 14.8 0.00 0.00 0.00 58 1012.4
20260504160106 68 168 6.1 13.0 0.00 0.00 0.00 60 1013.5